TimeCDT,TemperatureF,Dew PointF,Humidity,Sea Level PressureIn,VisibilityMPH,Wind Direction,Wind SpeedMPH,Gust SpeedMPH,PrecipitationIn,Events,Conditions,WindDirDegrees,DateUTC
12:54 AM,48.9,46.0,90,30.00,10.0,Calm,Calm,-,N/A,,Clear,0,2013-10-02 05:54:00
1:54 AM,48.0,45.0,89,30.01,10.0,Calm,Calm,-,N/A,,Clear,0,2013-10-02 06:54:00
2:54 AM,46.9,43.0,86,30.01,10.0,Calm,Calm,-,N/A,,Clear,0,2013-10-02 07:54:00
3:54 AM,46.9,45.0,93,30.02,10.0,Calm,Calm,-,N/A,,Clear,0,2013-10-02 08:54:00
4:54 AM,46.0,44.1,93,30.04,10.0,Calm,Calm,-,N/A,,Clear,0,2013-10-02 09:54:00
5:54 AM,45.0,44.1,97,30.04,10.0,Calm,Calm,-,N/A,,Clear,0,2013-10-02 10:54:00
6:54 AM,46.0,43.0,89,30.06,10.0,Calm,Calm,-,N/A,,Clear,0,2013-10-02 11:54:00
7:54 AM,51.1,45.0,80,30.06,10.0,NE,4.6,-,N/A,,Overcast,50,2013-10-02 12:54:00
8:54 AM,60.1,45.0,57,30.07,10.0,ESE,6.9,-,N/A,,Partly Cloudy,120,2013-10-02 13:54:00
9:54 AM,68.0,41.0,37,30.06,10.0,East,11.5,-,N/A,,Clear,100,2013-10-02 14:54:00
10:54 AM,72.0,37.0,28,30.05,10.0,ESE,15.0,21.9,N/A,,Mostly Cloudy,120,2013-10-02 15:54:00
11:54 AM,75.0,36.0,24,30.03,10.0,SE,15.0,21.9,N/A,,Clear,130,2013-10-02 16:54:00
12:54 PM,77.0,37.0,24,30.01,10.0,SE,16.1,-,N/A,,Clear,130,2013-10-02 17:54:00
1:54 PM,78.1,43.0,29,29.99,10.0,SSE,12.7,-,N/A,,Clear,150,2013-10-02 18:54:00
2:54 PM,79.0,46.9,32,29.96,10.0,SE,10.4,19.6,N/A,,Clear,130,2013-10-02 19:54:00
3:54 PM,80.1,50.0,35,29.93,10.0,SE,15.0,-,N/A,,Clear,130,2013-10-02 20:54:00
4:54 PM,80.1,52.0,38,29.90,10.0,SE,12.7,-,N/A,,Clear,130,2013-10-02 21:54:00
5:54 PM,79.0,54.0,42,29.89,10.0,SE,9.2,-,N/A,,Clear,140,2013-10-02 22:54:00
6:54 PM,73.0,55.9,55,29.88,10.0,SE,6.9,-,N/A,,Clear,130,2013-10-02 23:54:00
7:54 PM,69.1,57.0,65,29.89,10.0,East,5.8,-,N/A,,Clear,100,2013-10-03 00:54:00
8:54 PM,66.9,57.9,73,29.88,10.0,SE,8.1,-,N/A,,Clear,130,2013-10-03 01:54:00
9:54 PM,66.9,59.0,76,29.88,10.0,SE,6.9,-,N/A,,Clear,130,2013-10-03 02:54:00
10:54 PM,68.0,60.1,76,29.88,10.0,SSE,6.9,-,N/A,,Mostly Cloudy,150,2013-10-03 03:54:00
11:54 PM,66.0,59.0,78,29.87,10.0,South,4.6,-,N/A,,Partly Cloudy,170,2013-10-03 04:54:00